"TOA5","AWS1","CR1000","7964","CR1000.Std.14","CPU:AWS1_114.CR1","64363","TBL110"
"TIMESTAMP","RECORD","Wind_spd_WVc(1)","Wind_spd_WVc(2)","Air_Temp_Avg","Humidity_Avg","SW_upper_Wm2_Avg","Rain_Tot","Press_Avg","Issui_Tot","Depth_cm","SR50A_Raw","Quality","Ground_Temp_Avg(1)","Ground_Temp_Avg(2)","SW_lower_Wm2_Avg","Albedo_Avg","SWC_per(1)","SWC_per(2)","Period(1)","Period(2)"
"TS","RN","","","","","","","","","","","","","","","","","","",""
"","","WVc","WVc","Avg","Avg","Avg","Tot","Avg","Tot","Smp","Smp","Smp","Avg","Avg","Avg","Avg","Smp","Smp","Smp","Smp"
"2017-01-05 00:00:00",269341,0.9,274.9,-6.193,81,0,0,864.1127,0,8,3.136,183,2.41,3.105,0.07966197,0,51.21,58.73,33.6,35.39
"2017-01-05 00:10:00",269342,0.782,241.8,-6.38,81.2,0,0,864.1191,0,8.18,3.135,188,2.41,3.106,0,0,51.27,58.79,33.61,35.4
"2017-01-05 00:20:00",269343,0.612,242.5,-6.364,80.3,0,0,864.1149,0,8.1,3.136,193,2.41,3.108,0.02276056,0,51.21,58.73,33.6,35.39
"2017-01-05 00:30:00",269344,1.424,284.5,-6.285,79.95,0,0,864.1276,0,8.15,3.134,185,2.41,3.113,0.2769202,0,51.27,58.79,33.61,35.4
"2017-01-05 00:40:00",269345,1.307,274.5,-6.168,80,0,0,864.1339,0,7.952,3.136,205,2.41,3.106,0.1972582,0,51.21,58.79,33.6,35.4
"2017-01-05 00:50:00",269346,0.979,263.4,-6.22,80.6,0,0,864.2435,0,8.1,3.135,202,2.41,3.104,0.007586854,0,51.21,58.79,33.6,35.4
"2017-01-05 01:00:00",269347,1.715,265.5,-6.225,78.35,0,0,864.1613,0,7.582,3.14,190,2.41,3.105,0.1593239,0,51.27,58.73,33.61,35.39
"2017-01-05 01:10:00",269348,1.109,260.8,-6.2,77.34,0,0,864.1212,0,7.952,3.136,192,2.41,3.108,0.2010516,0,51.21,58.73,33.6,35.39
"2017-01-05 01:20:00",269349,1.209,272,-6.157,77.32,0,0,864.1992,0,7.853,3.137,186,2.41,3.103,0.2276056,0,51.27,58.73,33.61,35.39
"2017-01-05 01:30:00",269350,1.179,278.2,-6.155,78.36,0,0,864.4733,0,7.779,3.138,177,2.41,3.103,0.2276056,0,51.27,58.73,33.61,35.39
"2017-01-05 01:40:00",269351,1.544,264.9,-6.184,78.44,0,0,864.5724,0,7.755,3.138,186,2.412,3.103,0.1403568,0,51.21,58.79,33.6,35.4
"2017-01-05 01:50:00",269352,1.419,260,-6.213,79.08,0,0,864.5535,0.5,7.878,3.137,190,2.41,3.103,0.1365634,0,51.21,58.73,33.6,35.39
"2017-01-05 02:00:00",269353,0.709,209.4,-6.185,79.44,0,0,864.4691,0,7.779,3.138,189,2.41,3.103,0.2276056,0,51.21,58.73,33.6,35.39
"2017-01-05 02:10:00",269354,0.77,191,-6.203,80.3,0,0,864.4142,0,7.804,3.138,190,2.41,3.103,0.2162253,0,51.27,58.73,33.61,35.39
"2017-01-05 02:20:00",269355,0.561,189.3,-6.303,81.1,0,0,864.1929,0,7.558,3.141,185,2.41,3.103,0.04552113,0,51.21,58.73,33.6,35.39
"2017-01-05 02:30:00",269356,0.739,237.8,-6.247,80.1,0,0,864.1402,0,7.68,3.139,186,2.41,3.103,0.2238122,0,51.27,58.73,33.61,35.39
"2017-01-05 02:40:00",269357,0.972,276.1,-6.183,77.5,0,0,864.1317,0,7.581,3.14,191,2.41,3.103,0.2276056,0,51.21,58.73,33.6,35.39
"2017-01-05 02:50:00",269358,0.721,232.4,-6.144,78.11,0,0,863.923,0,7.531,3.14,180,2.41,3.103,0.2276056,0,51.21,58.73,33.6,35.39
"2017-01-05 03:00:00",269359,1.179,275.4,-6.155,78.29,0,0,863.9188,0,7.853,3.137,195,2.41,3.103,0.2276056,0,51.21,58.73,33.6,35.39
"2017-01-05 03:10:00",269360,1.193,264.2,-6.185,78.9,0,0,863.7206,0,7.779,3.138,197,2.412,3.103,0.2162253,0,51.21,58.73,33.6,35.39
"2017-01-05 03:20:00",269361,1.267,227.7,-6.081,78.07,0,0,863.6594,0,7.828,3.137,199,2.41,3.103,0.1972582,0,51.21,58.73,33.6,35.39
"2017-01-05 03:30:00",269362,0.795,189.5,-6.205,78.1,0,0,863.6447,0,7.656,3.14,190,2.41,3.103,0,0,51.21,58.73,33.6,35.39
"2017-01-05 03:40:00",269363,0.645,222.4,-6.298,77.67,0,0,863.6278,0,7.534,3.142,196,2.41,3.103,0,0,51.27,58.73,33.61,35.39
"2017-01-05 03:50:00",269364,0.763,212.3,-6.356,77.54,0,0,863.7248,0,7.729,3.138,184,2.41,3.103,0.204845,0,51.21,58.73,33.6,35.39
"2017-01-05 04:00:00",269365,0.625,219.5,-6.044,73.71,0,0,863.8703,0,7.703,3.137,188,2.41,3.103,0.5234929,0,51.21,58.73,33.6,35.39
"2017-01-05 04:10:00",269366,0.76,233.4,-5.956,74.44,0,0,863.9294,0,7.802,3.137,192,2.41,3.103,0.3338216,0,51.21,58.73,33.6,35.39
"2017-01-05 04:20:00",269367,1.073,255.5,-6.01,74.58,0,0,864.0284,0,7.803,3.137,201,2.41,3.103,0.1327699,0,51.21,58.73,33.6,35.39
"2017-01-05 04:30:00",269368,0.647,224.1,-6.157,74.53,0,0,863.8682,0,7.854,3.138,193,2.41,3.103,0,0,51.21,58.73,33.6,35.39
"2017-01-05 04:40:00",269369,0.544,194.6,-6.513,76.64,0,0,863.7079,0,7.807,3.14,200,2.41,3.103,0,0,51.21,58.73,33.6,35.39
"2017-01-05 04:50:00",269370,0.594,261.6,-6.415,74.8,0,0,863.7016,0,7.558,3.141,193,2.41,3.103,0.0834554,0,51.21,58.73,33.6,35.39
"2017-01-05 05:00:00",269371,0.504,252.5,-6.484,75.04,0,0,863.9399,0,7.781,3.139,200,2.41,3.103,0.1365634,0,51.21,58.73,33.6,35.39
"2017-01-05 05:10:00",269372,0.661,230,-6.41,74.81,0,0,864.1381,0,7.955,3.138,187,2.41,3.103,0.3414084,0,51.21,58.73,33.6,35.39
"2017-01-05 05:20:00",269373,0.439,222.4,-6.332,75.86,0,0,864.1402,0,7.804,3.138,200,2.41,3.103,0.4362441,0,51.21,58.73,33.6,35.39
"2017-01-05 05:30:00",269374,0.907,279.4,-6.155,74.29,0,0,864.2687,0,7.878,3.137,203,2.41,3.103,0.5083192,0,51.21,58.73,33.6,35.39
"2017-01-05 05:40:00",269375,0.463,237.1,-6.1,75.85,0,0,864.3847,0,7.408,3.142,203,2.41,3.103,0.2389859,0,51.21,58.73,33.6,35.39
"2017-01-05 05:50:00",269376,0.414,277.8,-6.185,77.09,0,0,864.3615,0,7.853,3.137,208,2.41,3.103,0.2276056,0,51.21,58.73,33.6,35.39
"2017-01-05 06:00:00",269377,0.719,290.2,-6.16,78.21,0,0,864.4058,0,7.878,3.137,218,2.41,3.103,0.2276056,0,51.21,58.73,33.6,35.39
"2017-01-05 06:10:00",269378,0.315,270.3,-6.247,80.3,0,0,864.526,0,7.459,3.142,225,2.41,3.103,0.07207511,0,51.21,58.73,33.6,35.39
"2017-01-05 06:20:00",269379,0.47,174,-6.436,82.6,0,0,864.6188,0,7.905,3.138,244,2.41,3.103,0.06828168,0,51.21,58.73,33.6,35.39
"2017-01-05 06:30:00",269380,0.448,282.5,-6.28,80.7,0,0,864.6462,0,7.952,3.136,228,2.41,3.103,0.2389859,0,51.21,58.73,33.6,35.39
"2017-01-05 06:40:00",269381,0.36,239.8,-6.296,82.4,0,0,864.7579,0,8.18,3.135,245,2.41,3.103,0.2276056,0,51.21,58.73,33.6,35.39
"2017-01-05 06:50:00",269382,0.614,269.5,-6.168,81.2,0,0,864.8992,0,7.407,3.141,219,2.41,3.103,0.4590047,0,51.21,58.73,33.6,35.39
"2017-01-05 07:00:00",269383,0.634,265.4,-6.098,81,0,0,864.9013,0,7.334,3.142,210,2.41,3.103,0.7169577,0,51.21,58.73,33.6,35.39
"2017-01-05 07:10:00",269384,1.37,284.9,-6.105,80.1,0.326548,0,864.8992,0,7.235,3.143,194,2.412,3.103,2.355718,3.746,51.21,58.73,33.6,35.39
"2017-01-05 07:20:00",269385,0.772,185.8,-6.329,82.2,1.683886,0,864.9055,0,7.263,3.145,218,2.41,3.103,4.74937,2.901,51.16,58.73,33.58,35.39
"2017-01-05 07:30:00",269386,0.529,219.4,-6.588,83.1,3.163188,0,864.9329,0,7.091,3.147,195,2.41,3.103,8.21277,2.596,51.21,58.73,33.6,35.39
"2017-01-05 07:40:00",269387,0.439,225.4,-6.546,82.8,4.209715,0,865.1585,0,7.042,3.148,186,2.41,3.103,11.06922,2.665,51.21,58.73,33.6,35.39
"2017-01-05 07:50:00",269388,0.481,221.5,-6.525,80.8,4.976906,0,865.1628,0,6.895,3.15,176,2.41,3.103,12.62832,2.549,51.21,58.73,33.6,35.39
"2017-01-05 08:00:00",269389,0.958,277.6,-6.535,81.2,11.66524,0,865.1965,0,7.039,3.146,189,2.41,3.103,26.48571,2.335,51.21,58.73,33.6,35.39
"2017-01-05 08:10:00",269390,1.542,284.6,-6.17,82.3,28.09887,0,865.3926,0,7.31,3.143,199,2.41,3.103,51.19609,1.809,51.21,58.73,33.6,35.39
"2017-01-05 08:20:00",269391,0.787,220.6,-6.126,83.5,15.71758,0,865.4031,0,7.136,3.144,185,2.41,3.103,25.49562,1.636,51.21,58.73,33.6,35.39
"2017-01-05 08:30:00",269392,0.323,170.5,-5.965,84.3,25.79336,0,865.6161,0,6.836,3.145,195,2.41,3.103,41.97807,1.633,51.16,58.73,33.58,35.39
"2017-01-05 08:40:00",269393,0.404,173,-5.75,84,35.59373,0,865.6582,0,6.661,3.145,196,2.389,3.088,58.00529,1.629,51.16,58.73,33.58,35.39
"2017-01-05 08:50:00",269394,0.467,157.4,-5.558,83.2,34.36623,0,865.6561,0,6.984,3.143,191,2.367,3.075,54.70122,1.591,51.21,58.73,33.6,35.39
"2017-01-05 09:00:00",269395,0.646,185.2,-5.545,84,51.40574,0,865.6582,0,6.956,3.141,194,2.376,3.102,88.17062,1.691,51.21,58.67,33.6,35.37
"2017-01-05 09:10:00",269396,0.734,180.8,-5.206,82.2,64.47553,0,865.6582,0,6.855,3.14,193,2.411,3.104,105.5635,1.634,51.16,58.73,33.58,35.39
"2017-01-05 09:20:00",269397,0.735,180.9,-5.056,80.5,41.60138,0,865.7531,0,6.734,3.143,181,2.411,3.103,65.29239,1.57,51.21,58.73,33.6,35.39
"2017-01-05 09:30:00",269398,1.016,205.1,-4.927,80.9,79.49562,0,865.6924,0,6.757,3.139,196,2.401,3.097,129.4489,1.634,51.21,58.67,33.6,35.37
"2017-01-05 09:40:00",269399,0.616,176.9,-4.525,78.98,73.24104,0,865.7216,0,6.446,3.143,190,2.408,3.079,114.7827,1.566,51.21,58.67,33.6,35.37
"2017-01-05 09:50:00",269400,0.921,281.2,-5.095,79.48,55.8914,0,865.7283,0,6.561,3.145,196,2.407,3.078,85.4888,1.528,51.21,58.73,33.6,35.39
"2017-01-05 10:00:00",269401,0.703,268.2,-5.238,82.7,72.47681,0,865.6811,0,7.317,3.137,196,2.385,3.052,114.4059,1.579,51.21,58.67,33.6,35.37
"2017-01-05 10:10:00",269402,0.934,270.5,-5.108,83.6,85.78952,0,865.7721,0,7.471,3.135,226,2.344,3.045,137.4174,1.599,51.16,58.73,33.58,35.39
"2017-01-05 10:20:00",269403,1.247,278.7,-5.328,84.6,58.71615,0,865.7822,0,5.891,3.152,201,2.329,3.051,93.41291,1.593,51.21,58.73,33.6,35.39
"2017-01-05 10:30:00",269404,0.769,262.6,-5.364,85.8,61.23663,0,865.8201,0,7.625,3.135,218,2.346,3.091,101.6827,1.656,51.21,58.67,33.6,35.37
"2017-01-05 10:40:00",269405,0.838,264.8,-5.428,87,50.91237,0,865.9359,0,7.799,3.133,203,2.363,3.105,87.42772,1.715,51.21,58.67,33.6,35.37
"2017-01-05 10:50:00",269406,0.72,338.6,-5.261,87.5,79.80788,0,865.8875,0,7.921,3.13,203,2.366,3.109,142.0268,1.776,51.21,58.73,33.6,35.39
"2017-01-05 11:00:00",269407,0.543,273.4,-5.02,87.1,75.69792,0,865.8411,0,8.37,3.125,202,2.409,3.101,134.8559,1.782,51.16,58.67,33.58,35.37
"2017-01-05 11:10:00",269408,0.281,233.7,-4.767,86.9,62.78204,0,865.7758,0,7.821,3.13,201,2.409,3.101,112.4937,1.791,51.21,58.67,33.6,35.37
"2017-01-05 11:20:00",269409,0.704,317.9,-5.297,86.5,53.4727,0,865.6093,0,9.31,3.118,202,2.409,3.101,96.39225,1.794,51.21,58.67,33.6,35.37
"2017-01-05 11:30:00",269410,0.909,289.1,-5.291,85.5,99.64579,0,865.5608,0,9.95,3.108,174,2.409,3.101,182.7429,1.833,51.16,58.67,33.58,35.37
"2017-01-05 11:40:00",269411,0.898,291.1,-5.127,84.1,79.69775,0,865.4597,0,9.85,3.111,185,2.409,3.101,144.9771,1.823,51.21,58.67,33.6,35.37
"2017-01-05 11:50:00",269412,0.855,301.6,-5.05,83.8,99.11877,0,865.3774,0,10.1,3.108,194,2.409,3.101,181.2564,1.837,51.21,58.67,33.6,35.37
"2017-01-05 12:00:00",269413,1.049,281.8,-5.179,83.6,83.79198,0,865.3106,0,10.55,3.103,179,2.409,3.101,158.5188,1.875,51.21,58.67,33.6,35.37
"2017-01-05 12:10:00",269414,1.019,243.4,-4.844,81.6,126.0374,0,865.2771,0,9.91,3.107,174,2.404,3.097,199.1403,1.642,51.21,58.67,33.6,35.37
"2017-01-05 12:20:00",269415,1.442,261.4,-4.577,76.71,158.8542,0,865.0878,0,10.08,3.106,181,2.38,3.106,215.7556,1.366,51.21,58.67,33.6,35.37
"2017-01-05 12:30:00",269416,0.923,240.7,-4.507,74.42,154.1361,0,864.9825,0,10.24,3.102,171,2.332,3.104,222.1817,1.485,51.21,58.67,33.6,35.37
"2017-01-05 12:40:00",269417,1.185,258.1,-4.303,74.92,139.8454,0,864.9352,0,10.69,3.098,175,2.262,3.074,204.2505,1.478,51.21,58.67,33.6,35.37
"2017-01-05 12:50:00",269418,0.773,261.3,-3.989,72.93,124.9763,0,864.9013,0,9.95,3.104,174,2.349,3.1,189.552,1.529,51.21,58.67,33.6,35.37
"2017-01-05 13:00:00",269419,1.008,272.2,-4.21,71.66,97.55589,0,864.905,0,10,3.104,170,2.397,3.099,148.4081,1.548,51.21,58.67,33.6,35.37
"2017-01-05 13:10:00",269420,0.805,261.5,-4.198,71.64,107.7189,0,864.9125,0,10.05,3.101,174,2.403,3.098,166.0654,1.589,51.21,58.67,33.6,35.37
"2017-01-05 13:20:00",269421,1.002,279.8,-3.954,70.47,69.22813,0,864.7397,0,9.75,3.106,174,2.406,3.098,127.3608,1.818,51.21,58.67,33.6,35.37
"2017-01-05 13:30:00",269422,1.175,266.6,-4.307,68.26,82.33225,0,864.8963,0,10,3.106,179,2.405,3.098,122.3152,1.498,51.21,58.67,33.6,35.37
"2017-01-05 13:40:00",269423,0.811,285.8,-4.468,67.02,67.43531,0,864.9084,0,10.35,3.102,187,2.4,3.098,108.8805,1.657,51.21,58.67,33.6,35.37
"2017-01-05 13:50:00",269424,1.189,292.1,-4.59,65.97,52.20024,0,864.9442,0,10.05,3.106,180,2.356,3.096,80.91924,1.598,51.16,58.67,33.58,35.37
"2017-01-05 14:00:00",269425,1.065,311.7,-4.525,64.34,49.80588,0,864.9559,0,10.15,3.103,192,2.313,3.11,90.02863,1.812,51.21,58.67,33.6,35.37
"2017-01-05 14:10:00",269426,1.038,21.44,-4.369,65.93,50.0575,0,864.9664,0,10.1,3.104,188,2.326,3.132,74.8084,1.553,51.21,58.67,33.6,35.37
"2017-01-05 14:20:00",269427,0.9,330.9,-4.343,66.94,45.34348,0,864.9987,0,9.8,3.105,190,2.325,3.146,72.22684,1.603,51.21,58.67,33.6,35.37
"2017-01-05 14:30:00",269428,1.035,328.2,-4.186,64.73,35.96261,0,865.0667,0,9.85,3.105,187,2.322,3.092,66.76804,1.855,51.21,58.67,33.6,35.37
"2017-01-05 14:40:00",269429,1.206,313.4,-4.323,64.71,39.44997,0,865.0964,0,10.1,3.104,192,2.32,3.023,72.35953,1.834,51.21,58.67,33.6,35.37
"2017-01-05 14:50:00",269430,0.803,345.9,-4.383,65.87,28.70483,0,865.0143,0,10.05,3.104,187,2.32,3.013,49.76613,1.728,51.21,58.67,33.6,35.37
"2017-01-05 15:00:00",269431,0.694,38.79,-4.432,66.51,21.56892,0,865.166,0,10.08,3.105,183,2.32,3.011,38.26472,1.764,51.21,58.67,33.6,35.37
"2017-01-05 15:10:00",269432,1.048,64.47,-4.499,69.26,39.49715,0,865.2271,0,9.85,3.107,187,2.32,3.011,73.20867,1.85,51.21,58.67,33.6,35.37
"2017-01-05 15:20:00",269433,0.675,350.4,-4.688,72.68,32.32681,0,865.2522,0,9.84,3.109,179,2.327,3.019,59.643,1.843,51.21,58.67,33.6,35.37
"2017-01-05 15:30:00",269434,0.771,328.9,-4.953,78.13,34.85337,0,865.455,0,9.83,3.111,179,2.345,3.036,62.97576,1.807,51.16,58.67,33.58,35.37
"2017-01-05 15:40:00",269435,1.137,269.9,-5.202,81,37.81248,0,865.4747,0,9.53,3.115,175,2.361,3.053,67.85911,1.796,51.21,58.67,33.6,35.37
"2017-01-05 15:50:00",269436,1.402,271.9,-5.431,82.7,26.27294,0,865.5308,0,9.62,3.115,176,2.377,3.072,45.45826,1.725,51.21,58.67,33.6,35.37
"2017-01-05 16:00:00",269437,1.574,275.1,-5.573,81.1,27.36364,0,865.5698,0.5,9.71,3.115,192,2.388,3.092,50.04877,1.821,51.16,58.67,33.58,35.37
"2017-01-05 16:10:00",269438,1.406,296,-5.631,82.2,20.27773,0,865.7346,0,9.76,3.115,193,2.382,3.078,35.76243,1.762,51.21,58.67,33.6,35.37
"2017-01-05 16:20:00",269439,1.042,239.4,-5.754,83.4,12.31398,0,866.0328,0,9.76,3.116,192,2.373,3.063,20.21939,1.596,51.21,58.67,33.6,35.37
"2017-01-05 16:30:00",269440,1.224,279.8,-5.862,81.8,6.398923,0,866.0712,0,9.71,3.117,193,2.399,3.095,12.60501,1.947,51.16,58.67,33.58,35.37
"2017-01-05 16:40:00",269441,1.295,292.6,-6.023,83.6,3.169971,0,866.0556,0,9.58,3.119,185,2.403,3.097,6.196336,1.958,51.21,58.67,33.6,35.37
"2017-01-05 16:50:00",269442,1.32,287.8,-6.103,85.5,0.365766,0,866.0685,0,9.68,3.118,193,2.378,3.073,1.391712,2.146,51.21,58.67,33.6,35.37
"2017-01-05 17:00:00",269443,1.283,297.9,-6.126,88.3,0,0,866.1212,0,9.56,3.12,176,2.333,3.031,0.2426963,0,51.21,58.67,33.6,35.37
"2017-01-05 17:10:00",269444,1.015,301,-6.322,89.9,0.07472641,0,866.1907,0,9.61,3.121,191,2.325,3.018,0.087219,0.016,51.16,58.67,33.58,35.37
"2017-01-05 17:20:00",269445,0.913,282.6,-6.481,90.1,0.01179891,0,866.3193,0,9.96,3.118,191,2.322,3.015,0,0,51.21,58.61,33.6,35.36
"2017-01-05 17:30:00",269446,1.005,276.1,-6.605,91,0,0,866.332,0,10.01,3.118,190,2.323,3.032,0,0,51.21,58.67,33.6,35.37
"2017-01-05 17:40:00",269447,1.038,285.2,-6.636,91.7,0,0,866.3531,0,10.01,3.118,191,2.338,3.052,0.05308982,0,51.16,58.67,33.58,35.37
"2017-01-05 17:50:00",269448,1.062,277.6,-6.619,92.5,0,0,866.3256,0,9.71,3.121,185,2.353,3.057,0.1441009,0,51.21,58.61,33.6,35.36
"2017-01-05 18:00:00",269449,0.755,275,-6.537,92.9,0,0,866.3847,0,9.66,3.121,177,2.355,3.057,0.2199436,0,51.21,58.67,33.6,35.37
"2017-01-05 18:10:00",269450,1.24,277.5,-6.51,93,0,0,866.5934,0,10.05,3.117,176,2.346,3.059,0.1403088,0,51.21,58.67,33.6,35.37
"2017-01-05 18:20:00",269451,1.079,301.9,-6.488,93.6,0,0,866.7156,0,9.83,3.119,185,2.361,3.058,0.2237365,0,51.21,58.61,33.6,35.36
"2017-01-05 18:30:00",269452,1.53,287,-6.506,93.2,0,0,866.7957,0,10.24,3.115,192,2.373,3.064,0.109975,0,51.16,58.67,33.58,35.37
"2017-01-05 18:40:00",269453,1.722,283.6,-6.571,91.7,0,0,866.9658,0,10.08,3.117,192,2.394,3.08,0.007585077,0,51.21,58.67,33.6,35.37
"2017-01-05 18:50:00",269454,1.697,278.9,-6.655,90.7,0,0,866.8842,0.5,10.03,3.118,190,2.387,3.077,0,0,51.16,58.61,33.58,35.36
"2017-01-05 19:00:00",269455,1.353,285.1,-6.741,90.7,0,0,867.0285,0,10.08,3.118,192,2.406,3.119,0,0,51.21,58.67,33.6,35.37
"2017-01-05 19:10:00",269456,0.896,300.1,-6.745,90.6,0,0,867.0466,0,9.98,3.119,192,2.367,3.067,0.01137846,0,51.21,58.61,33.6,35.36
"2017-01-05 19:20:00",269457,1.394,285.9,-6.795,89.9,0,0,866.8986,0,10.02,3.119,190,2.381,3.083,0,0,51.16,58.61,33.58,35.36
"2017-01-05 19:30:00",269458,0.915,312.1,-6.804,90.9,0,0,866.8589,0,9.72,3.122,193,2.395,3.089,0.01896624,0,51.16,58.61,33.58,35.36
"2017-01-05 19:40:00",269459,1.148,290.2,-6.788,91.5,0,0,866.7937,0,9.96,3.119,192,2.398,3.094,0.04931333,0,51.21,58.61,33.6,35.36
"2017-01-05 19:50:00",269460,1.042,265.9,-6.759,91.2,0,0,867.1023,0,9.98,3.119,192,2.413,3.101,0.03793379,0,51.16,58.61,33.58,35.36
"2017-01-05 20:00:00",269461,0.686,254.4,-6.79,90.8,0,0,867.1757,0,9.98,3.119,192,2.409,3.103,0,0,51.21,58.61,33.6,35.36
"2017-01-05 20:10:00",269462,1.318,282.7,-6.784,89.7,0,0,867.1783,0,9.91,3.12,191,2.398,3.102,0.0151737,0,51.16,58.61,33.58,35.36
"2017-01-05 20:20:00",269463,0.75,277.3,-6.818,89.4,0,0,867.3027,0,9.91,3.12,191,2.399,3.103,0,0,51.21,58.61,33.6,35.36
"2017-01-05 20:30:00",269464,0.67,266.2,-6.841,88.4,0,0,867.3956,0,9.81,3.121,192,2.401,3.103,0.01517371,0,51.16,58.61,33.58,35.36
"2017-01-05 20:40:00",269465,0.559,279.3,-6.928,87.5,0,0,867.2922,0,9.76,3.123,191,2.409,3.103,0,0,51.16,58.61,33.58,35.36
"2017-01-05 20:50:00",269466,0.518,268.5,-7.126,87,0,0,867.2395,0,9.81,3.123,191,2.41,3.103,0,0,51.16,58.61,33.58,35.36
"2017-01-05 21:00:00",269467,0.449,341.2,-7.25,85.9,0,0,867.2775,0,9.94,3.123,191,2.41,3.103,0,0,51.21,58.61,33.6,35.36
"2017-01-05 21:10:00",269468,0.559,273.9,-7.294,85.6,0,0,867.4314,0,9.39,3.128,191,2.41,3.103,0,0,51.16,58.61,33.58,35.36
"2017-01-05 21:20:00",269469,0.585,265.7,-7.409,85.8,0,0,867.425,0,9.89,3.124,190,2.41,3.108,0,0,51.16,58.61,33.58,35.36
"2017-01-05 21:30:00",269470,0.666,285.5,-7.434,83.8,0,0,867.4271,0,9.47,3.129,190,2.41,3.106,0,0,51.16,58.61,33.58,35.36
"2017-01-05 21:40:00",269471,0.582,231.9,-7.591,84.2,0,0,867.3702,0,9.59,3.128,191,2.41,3.117,0,0,51.16,58.61,33.58,35.36
"2017-01-05 21:50:00",269472,0.443,197.3,-7.915,85.8,0,0,867.1762,0,9.6,3.13,190,2.413,3.143,0,0,51.1,58.61,33.57,35.36
"2017-01-05 22:00:00",269473,0.954,208.9,-8.06,88,0,0,867.0434,0,9.74,3.128,190,2.433,3.145,0.02655399,0,51.16,58.61,33.58,35.36
"2017-01-05 22:10:00",269474,0.491,212.3,-7.763,81.6,0,0,866.9697,0,9.32,3.132,190,2.43,3.141,0.03414084,0,51.16,58.61,33.58,35.36
"2017-01-05 22:20:00",269475,0.837,204.5,-8.01,82.9,0,0,867.0751,0,9.79,3.128,192,2.444,3.124,0,0,51.16,58.61,33.58,35.36
"2017-01-05 22:30:00",269476,0.423,192.1,-8.08,83.8,0,0,867.1509,0,9.6,3.132,190,2.452,3.127,0,0,51.16,58.61,33.58,35.36
"2017-01-05 22:40:00",269477,0.402,201.8,-8.37,87.5,0,0,867.1636,0,9.58,3.133,191,2.451,3.112,0,0,51.16,58.61,33.58,35.36
"2017-01-05 22:50:00",269478,0.535,196.8,-8.45,89.6,0,0,867.0371,0,9.38,3.136,190,2.444,3.072,0,0,51.16,58.61,33.58,35.36
"2017-01-05 23:00:00",269479,0.416,187.4,-8.72,88.8,0,0,866.9802,0,9.48,3.137,190,2.412,3.068,0,0,51.16,58.61,33.58,35.36
"2017-01-05 23:10:00",269480,0.38,187.4,-8.85,90.3,0,0,867.0918,0,9.65,3.134,190,2.385,3.076,0,0,51.16,58.61,33.58,35.36
"2017-01-05 23:20:00",269481,0.284,336.5,-8.67,89.6,0,0,867.1874,0,9.34,3.137,190,2.399,3.058,0.04552595,0,51.16,58.61,33.58,35.36
"2017-01-05 23:30:00",269482,0.479,338.8,-8.61,86.9,0,0,867.0475,0,9.43,3.134,190,2.418,3.059,0.1934986,0,51.16,58.61,33.58,35.36
"2017-01-05 23:40:00",269483,0.594,257.2,-8.28,83.7,0,0,867.0914,0,9.74,3.131,191,2.438,3.077,0.3111283,0,51.16,58.61,33.58,35.36
"2017-01-05 23:50:00",269484,0.579,269.7,-8.26,83.9,0,0,867.1825,0,9.48,3.132,190,2.456,3.106,0.3035629,0,51.16,58.61,33.58,35.36
